Погода в Красном Партизане

Россия / Алтайский край     51°22′33″N   83°34′51″E
темп.,
°C
ветер,
м/с
пор.,
м/с
влажн.,
%
обл.,
%
осадки,
мм/ч
давл.,
гПа
погр.,
м
17 мая, пн
пн1701:00+13ююв337384 0.6 101528
04:00+12ююв227195 0.0 101411
07:00+13ююв2270100 0.0 101436
10:00+18з576150 0.3 1015844
13:00+17зсз357215 1.3 1015599
16:00+19з566396 1.8 10151122
19:00+18сз137165 5.3 1015219
22:00+14юв11815 0.7 101611
18 мая, вт
вт1801:00+12ююв2287100 0.7 101617
04:00+11ююв2288100 0.0 101513
07:00+13ююв22849 0.1 101463
10:00+19ююз396414 0.2 1012645
13:00+23зюз8105138 0.2 10111439
16:00+22з9115687 0.3 10091903
19:00+15юв2483100 4.8 1009153
22:00+14ю4789100 1.3 1009170
19 мая, ср
ср1901:00+12ююв23934 1.8 100861
04:00+11ю2291100 0.6 100635
07:00+12ю228885 1.8 100577
10:00+17з797798 1.9 1005683
13:00+14з488983 9.4 1006526
16:00+11ссз3697100 2.1 1007496
19:00+9с3493100 2.5 1008550
22:00+7ссв3791100 0.7 1008783
20 мая, чт
чт2001:00+6ссв3886100 1.4 1009757
04:00+4ссз2490100 0.2 1009172
07:00+2ссз3999100 1.9 1012459
10:00+4ссв4668100 0.6 10131273
13:00+6с5757100 1.6 10131675
16:00+5с7864100 1.8 10151588
19:00+3с686871 3.0 10191207
22:000с11704 0.3 102210
21 мая, пт
пт2101:00−1ю00691 0.3 102310
04:00−2ююв22760 0.0 102415
07:000юв22713 0.0 1026131
10:00+5юв2344100 0.0 1025828
13:00+9ю123787 0.0 10241412
16:00+11з023691 0.0 10221683
19:00+10с114332 0.0 1022890
22:00+4св115772 0.0 102410